Weather Service Report


066 
ASUS44 KFWD 161815
RWRTX 
NORTH TEXAS HOURLY WEATHER ROUNDUP
NATIONAL WEATHER SERVICE FORT WORTH TX
100 PM CDT TUE SEP 16 2014

NOTE: "FAIR" INDICATES FEW OR NO CLOUDS BELOW 12,000 FEET WITH NO
SIGNIFICANT WEATHER AND/OR OBSTRUCTIONS TO VISIBILITY.

TXZ118-119-161900-
DALLAS/FORT WORTH METROPLEX
  
CITY           SKY/WX    TMP DP  RH WIND       PRES   REMARKS
DFW AIRPORT    PTSUNNY   86  68  54 CALM      30.08F                  
6HR MIN TEMP:  75; 6HR MAX TEMP:  87;                                

DALLAS LOVE    PTSUNNY   86  69  56 E3        30.08F HX  90           
6HR MIN TEMP:  75; 6HR MAX TEMP:  87;                                

FTW MEACHAM    PTSUNNY   86  68  54 SE5       30.09F                  
6HR MIN TEMP:  75; 6HR MAX TEMP:  88;                                

DAL-EXECUTIVE  PTSUNNY   87  69  54 SE6       30.08F HX  91           
6HR MIN TEMP:  75; 6HR MAX TEMP:  89;                                

FTW-ALLIANCE   PTSUNNY   87  68  52 SE7       30.08F HX  90           
6HR MIN TEMP:  71; 6HR MAX TEMP:  87;                                

FTW-NAS-JRB    PTSUNNY   90  69  50 S5        30.13F HX  94           
6HR MIN TEMP:  79; 6HR MAX TEMP:  91;                                

FTW-SPINKS     PTSUNNY   84  70  61 CALM      30.11F                  
ARLINGTON      PTSUNNY   85  69  58 VRB5      30.09F                  
6HR MIN TEMP:  73; 6HR MAX TEMP:  86;                                

GRAND PRAIRIE  MOSUNNY   84  70  61 MISG      30.10F                  
ADDISON        PTSUNNY   88  66  48 SE5       30.10F HX  90           
MESQUITE       MOSUNNY   86  68  54 CALM      30.08F                  
LANCASTER      PTSUNNY   85  68  56 CALM      30.09F                  
6HR MIN TEMP:  71; 6HR MAX TEMP:  85;                                

$$

TXZ091>094-102>105-117-120-121-131>134-161900-
NORTH CENTRAL TEXAS
  
CITY           SKY/WX    TMP DP  RH WIND       PRES   REMARKS
SHRMAN/DENISON PTSUNNY   84  69  60 S7        30.11F                  
6HR MIN TEMP:  72; 6HR MAX TEMP:  85;                                

GAINESVILLE    PTSUNNY   83  69  61 NE3       30.12F                  
6HR MIN TEMP:  71; 6HR MAX TEMP:  83;                                

BOWIE          PTSUNNY   84  68  58 E5        30.12F                  
6HR MIN TEMP:  70; 6HR MAX TEMP:  84;                                

BRIDGEPORT     PTSUNNY   85  64  49 CALM      30.12F                  
6HR MIN TEMP:  70; 6HR MAX TEMP:  86;                                

DECATUR        PTSUNNY   83  67  58 NE3       30.11F                  
6HR MIN TEMP:  72; 6HR MAX TEMP:  83;                                

DENTON         PTSUNNY   86  67  52 NE5       30.09F                  
6HR MIN TEMP:  73; 6HR MAX TEMP:  86;                                

MCKINNEY       PTSUNNY   88  68  51 SE8       30.09F HX  91           
6HR MIN TEMP:  73; 6HR MAX TEMP:  88;                                

GREENVILLE     CLOUDY    88  66  48 N3        30.09F HX  90           
ROCKWALL       PTSUNNY   86  70  58 NE3       30.08F HX  91           
6HR MIN TEMP:  72; 6HR MAX TEMP:  87;                                

TERRELL        PTSUNNY   88  68  51 NE5       30.08F HX  91           
6HR MIN TEMP:  74; 6HR MAX TEMP:  88;                                

WAXAHACHIE     CLOUDY    85  69  58 E3        30.10F                  
6HR MIN TEMP:  73; 6HR MAX TEMP:  85;                                

CLEBURNE       CLOUDY    84  72  65 CALM      30.10F                  
GRANBURY       PTSUNNY   88  68  52 E6        30.10F HX  91           
6HR MIN TEMP:  72; 6HR MAX TEMP:  88;                                

$$

TXZ083>090-098>101-113>116-127>130-139>142-154-155-161900-
WESTERN NORTH TEXAS
  
CITY           SKY/WX    TMP DP  RH WIND       PRES   REMARKS
WICHITA FALLS  PTSUNNY   85  68  56 SE6       30.10F                  
6HR MIN TEMP:  72; 6HR MAX TEMP:  86;                                

WF-KICKAPOO    PTSUNNY   86  65  48 CALM      30.12F                  
6HR MIN TEMP:  73; 6HR MAX TEMP:  87;                                

VERNON         PTSUNNY   86  64  47 S7        30.12F                  
6HR MIN TEMP:  70; 6HR MAX TEMP:  87;                                

ABILENE        CLOUDY    84  66  54 SW5       30.14F                  
6HR MIN TEMP:  72; 6HR MAX TEMP:  86;                                

ABILENE-DYESS  PTSUNNY   82  66  57 VRB2      30.13F                  
6HR MIN TEMP:  70; 6HR MAX TEMP:  83;                                

BRECKENRIDGE   PTSUNNY   86  66  50 CALM      30.11F HAZE             
6HR MIN TEMP:  73; 6HR MAX TEMP:  87;                                

GRAHAM         PTSUNNY   86  65  49 CALM      30.09F                  
6HR MIN TEMP:  72; 6HR MAX TEMP:  87;                                

MINERAL WELLS  PTSUNNY   85  67  54 VRB5      30.09F                  
STEPHENVILLE   PTSUNNY   83  68  61 CALM      30.14F                  
6HR MIN TEMP:  71; 6HR MAX TEMP:  83;                                

COMANCHE         N/A     86  66  51 CALM      30.12F                  
6HR MIN TEMP:  69; 6HR MAX TEMP:  87;                                

BROWNWOOD      LGT RAIN  84  66  54 CALM      30.13F                  
COLEMAN        MOSUNNY   86  66  51 SW5       30.14F                  
6HR MIN TEMP:  70; 6HR MAX TEMP:  86;                                

BRADY            N/A     82  70  65 CALM      30.12F                  
$$

TXZ143>147-156>162-174-175-161900-
CENTRAL TEXAS
  
CITY           SKY/WX    TMP DP  RH WIND       PRES   REMARKS
WACO           PTSUNNY   87  71  58 CALM      30.06F HX  93           
6HR MIN TEMP:  73; 6HR MAX TEMP:  89;                                

WACO-MCGREGOR  PTSUNNY   88  70  55 CALM      30.07F HX  92           
6HR MIN TEMP:  72; 6HR MAX TEMP:  90;                                

HILLSBORO      TSTM      80  72  77 S5        30.09F                  
6HR MIN TEMP:  73; 6HR MAX TEMP:  84; 6HR PCP:  0.27;                

CORSICANA      MOSUNNY   88  71  57 CALM      30.08F HX  94           
6HR MIN TEMP:  74; 6HR MAX TEMP:  88;                                

MEXIA          MOSUNNY   88  72  58 CALM      30.06F HX  94           
6HR MIN TEMP:  72; 6HR MAX TEMP:  88;                                

HEARNE           N/A     89  74  59 E6        30.04F HX  98           
6HR MIN TEMP:  74; 6HR MAX TEMP:  89;                                

CAMERON        MOSUNNY   89  71  55 E6        30.04F HX  95           
6HR MIN TEMP:  74; 6HR MAX TEMP:  91;                                

TEMPLE         PTSUNNY   90  70  51 NE7       30.05F HX  95           
6HR MIN TEMP:  72; 6HR MAX TEMP:  91;                                

KILLEEN        PTSUNNY   88  72  58 N6        30.07F HX  94           
KILLEEN-SKYLRK PTSUNNY   90  70  51 E6        30.06F HX  95           
6HR MIN TEMP:  73; 6HR MAX TEMP:  90;                                

FORT HOOD      CLOUDY    88  73  61 NW7       30.07F HX  95           
6HR MIN TEMP:  75; 6HR MAX TEMP:  89;                                

GATESVILLE     PTSUNNY   86  72  62 CALM      30.10F HX  92           
HAMILTON       CLOUDY    84  70  62 CALM      30.12F                  
6HR MIN TEMP:  72; 6HR MAX TEMP:  85;                                

LAMPASAS       MOSUNNY   89  73  59 CALM      30.09F HX  97           
6HR MIN TEMP:  71; 6HR MAX TEMP:  89;                                

$$

TXZ095>097-106>112-122>126-135>138-148>153-164>167-161900-
EAST TEXAS
  
CITY           SKY/WX    TMP DP  RH WIND       PRES   REMARKS
PARIS          MOSUNNY   84  68  58 SE6       30.11F                  
6HR MIN TEMP:  72; 6HR MAX TEMP:  84;                                

SULPHUR SPRNGS PTSUNNY   85  69  59 SE3       30.12F                  
6HR MIN TEMP:  71; 6HR MAX TEMP:  85;                                

MOUNT PLEASANT PTSUNNY   85  69  58 CALM      30.10F                  
6HR MIN TEMP:  71; 6HR MAX TEMP:  85;                                

GILMER         PTSUNNY   88  72  58 CALM      30.10F HX  94           
MINEOLA        PTSUNNY   84  72  65 CALM      30.10F                  
TYLER          PTSUNNY   86  72  62 NE3       30.08F HX  92           
6HR MIN TEMP:  73; 6HR MAX TEMP:  87;                                

LONGVIEW       PTSUNNY   88  69  53 E6        30.07F HX  92           
6HR MIN TEMP:  73; 6HR MAX TEMP:  88;                                

MARSHALL       PTSUNNY   89  70  53 N7        30.09F HX  93           
6HR MIN TEMP:  73; 6HR MAX TEMP:  89;                                

ATHENS         PTSUNNY   84  72  65 E3        30.07F                  
PALESTINE      MOSUNNY   89  75  63 E6        30.07F HX  98           
JACKSONVILLE   MOSUNNY   86  71  61 CALM      30.10F HX  91           
HENDERSON      CLOUDY    86  71  61 CALM      30.09F HX  91           
6HR MIN TEMP:  73; 6HR MAX TEMP:  87;                                

NACOGDOCHES    PTSUNNY   90  73  58 NE7       30.06F HX  98           
6HR MIN TEMP:  73; 6HR MAX TEMP:  90;                                

LUFKIN         MOSUNNY   90  74  59 N6        30.05F HX  99           
6HR MIN TEMP:  76; 6HR MAX TEMP:  92;                                

$$

SUPPLEMENTAL OBSERVATIONS (CENTRAL)
  
CITY           SKY/WX    TMP DP  RH WIND       PRES   REMARKS
LAKE TEXOMA      N/A     82  68  61 SE1         N/A                   
CADDO GRASSLND   N/A     84  72  65 CALM        N/A                   
PAT MAYSE LAKE   N/A     82  72  69 S3          N/A                   
GREENVILLE       N/A     88  70  55 NE6         N/A  HX  92           
CEDAR HILL       N/A     84  68  58 W3          N/A                   
PALESTINE        N/A     91  73  55 E3          N/A  HX 100           
LAKE LIMESTONE   N/A     90  72  55 NE7         N/A  HX  96           
MCGREGOR         N/A     90  72  55 E5          N/A  HX  96           
TEMPLE           N/A     91  70  49 NE8         N/A  HX  97           
$$

SUPPLEMENTAL OBSERVATIONS (WEST)
  
CITY           SKY/WX    TMP DP  RH WIND       PRES   REMARKS

Return to Home page


Western Regional Climate Center, wrcc@dri.edu